Frederick, MD

8:24 PM EST on November 20, 2019 (GMT -0500)
Frederick Municipal

Weather History for KFDK - October, 2019

Change the Weather History Date:

Tuesday, October 22, 2019

  Actual Average (KHGR) Record (KHGR)
Temperature  
Mean Temperature 56 °F -  
Max Temperature 60 °F 59 °F 79 °F (2015)
Min Temperature 53 °F 41 °F 33 °F (1997)
Degree Days  
Heating Degree Days 8    
Growing Degree Days 6 (Base 50)    
Moisture  
Dew Point 56 °F    
Average Humidity 91    
Maximum Humidity 100    
Minimum Humidity 82    
Precipitation  
Precipitation 0.00 in - - ()
Sea Level Pressure  
Sea Level Pressure 29.96 in    
Wind  
Wind Speed 3 mph (South)    
Max Wind Speed 8 mph    
Max Gust Speed -    
Visibility 6 miles    
Events Rain    
Averages and records for this station are not official NWS values.
T = Trace of Precipitation, MM = Missing Value Source: NWS Daily Summary

Daily Weather History Graph

Daily Weather History Graph

Search for Another Location

Airport or City:

Astronomy

Oct. 22, 2019 Rise Set
Actual Time 7:26 AM EDT 6:20 PM EDT
Civil Twilight 6:59 AM EDT 6:48 PM EDT
Nautical Twilight 6:27 AM EDT 7:19 PM EDT
Astronomical Twilight 5:56 AM EDT 7:50 PM EDT
Moon 12:36 AM EDT (10/22) 3:26 PM EDT (10/22)
Length of Visible Light 11h 49m
Length of Day
10h 54m
Last Quarter, 37% of the Moon is Illuminated
Oct 22
Last Quarter
Oct 27
New
Nov 4
First Quarter
Nov 12
Full
Nov 19
Last Quarter

Hourly Weather History & Observations

Time (EDT) Temp. Dew Point Humidity Pressure Visibility Wind Dir Wind Speed Gust Speed Precip Events Conditions
12:05 AM 57.2 °F 53.6 °F 88% 30.06 in 10.0 mi South 3.5 mph - N/A   Overcast
12:45 AM 59.0 °F 53.6 °F 82% 30.08 in 10.0 mi South 3.5 mph - N/A   Overcast
1:05 AM 59.0 °F 53.6 °F 82% 30.07 in 10.0 mi Calm Calm - N/A   Overcast
1:25 AM 59.0 °F 53.6 °F 82% 30.07 in 10.0 mi Calm Calm - N/A   Overcast
1:45 AM 59.0 °F 53.6 °F 82% 30.07 in 10.0 mi South 3.5 mph - N/A   Overcast
2:05 AM 59.0 °F 53.6 °F 82% 30.06 in 10.0 mi Calm Calm - N/A   Overcast
2:25 AM 59.0 °F 53.6 °F 82% 30.07 in 10.0 mi SSW 5.8 mph - N/A   Overcast
2:45 AM 59.0 °F 53.6 °F 82% 30.05 in 10.0 mi South 6.9 mph - N/A   Overcast
3:05 AM 59.0 °F 53.6 °F 82% 30.04 in 10.0 mi South 5.8 mph - N/A   Overcast
3:25 AM 59.0 °F 53.6 °F 82% 30.03 in 10.0 mi Calm Calm - N/A   Overcast
3:45 AM 59.0 °F 55.4 °F 88% 30.03 in 7.0 mi South 4.6 mph - N/A   Overcast
4:05 AM 57.2 °F 55.4 °F 94% 30.02 in 4.0 mi South 3.5 mph - N/A   Overcast
4:25 AM 57.2 °F 55.4 °F 94% 30.01 in 5.0 mi South 4.6 mph - N/A   Overcast
4:45 AM 57.2 °F 55.4 °F 94% 30.00 in 3.0 mi Calm Calm - N/A   Overcast
5:05 AM 57.2 °F 55.4 °F 94% 30.01 in 4.0 mi Calm Calm - N/A   Overcast
5:25 AM 57.2 °F 55.4 °F 94% 30.01 in 4.0 mi Calm Calm - N/A   Overcast
5:45 AM 57.2 °F 55.4 °F 94% 30.00 in 3.0 mi Calm Calm - N/A   Overcast
6:05 AM 57.2 °F 55.4 °F 94% 30.02 in 5.0 mi South 4.6 mph - N/A   Overcast
6:25 AM 57.2 °F 55.4 °F 94% 29.99 in 4.0 mi SE 4.6 mph - N/A   Overcast
6:45 AM 57.2 °F 55.4 °F 94% 29.99 in 4.0 mi SE 3.5 mph - N/A   Overcast
6:47 AM 57.2 °F 57.2 °F 100% 29.98 in 4.0 mi Calm Calm - N/A   Overcast
7:00 AM 57.2 °F 55.4 °F 94% 29.98 in 4.0 mi Calm Calm - N/A   Overcast
7:47 AM 57.2 °F 57.2 °F 100% 30.00 in 2.0 mi Calm Calm - N/A   Overcast
8:51 AM 57.2 °F 57.2 °F 100% 29.99 in 3.0 mi South 5.8 mph - N/A   Overcast
9:49 AM 59.0 °F 57.2 °F 94% 29.96 in 4.0 mi South 3.5 mph - N/A   Overcast
10:49 AM 60.8 °F 57.2 °F 88% 29.95 in 4.0 mi SSE 5.8 mph - N/A   Overcast
11:47 AM 60.8 °F 57.2 °F 88% 29.92 in 4.0 mi SSE 5.8 mph - N/A   Overcast
12:47 PM 60.8 °F 57.2 °F 88% 29.88 in 5.0 mi SSE 5.8 mph - N/A   Overcast
1:47 PM 60.8 °F 57.2 °F 88% 29.83 in 5.0 mi SSE 8.1 mph - N/A   Overcast
2:47 PM 60.8 °F 59.0 °F 94% 29.83 in 4.0 mi SW 8.1 mph - N/A Rain Light Rain
3:47 PM 60.8 °F 59.0 °F 94% 29.84 in 4.0 mi West 6.9 mph - N/A Rain Light Rain
4:47 PM 60.8 °F 59.0 °F 94% 29.84 in 5.0 mi Calm Calm - N/A Rain Light Rain
5:47 PM 60.8 °F 59.0 °F 94% 29.82 in 7.0 mi SSE 4.6 mph - N/A   Mostly Cloudy
6:47 PM 60.8 °F 59.0 °F 94% 29.83 in 7.0 mi Calm Calm - N/A   Mostly Cloudy
7:15 PM 59.0 °F 57.2 °F 94% 29.84 in 10.0 mi Calm Calm - N/A   Mostly Cloudy
7:47 PM 59.0 °F 57.2 °F 94% 29.86 in 10.0 mi Calm Calm - N/A   Overcast
8:53 PM 57.2 °F 55.4 °F 94% 29.87 in 10.0 mi Calm Calm - N/A   Scattered Clouds
9:25 PM 53.6 °F 53.6 °F 100% 29.87 in 4.0 mi WSW 4.6 mph - N/A   Clear
9:45 PM 55.4 °F 53.6 °F 94% 29.87 in 7.0 mi Calm Calm - N/A   Scattered Clouds
10:05 PM 55.4 °F 53.6 °F 94% 29.88 in 5.0 mi Calm Calm - N/A   Clear
11:25 PM 53.6 °F 51.8 °F 94% 29.88 in 3.0 mi Calm Calm - N/A   Clear
11:45 PM 53.6 °F 51.8 °F 94% 29.88 in 1.2 mi South 3.5 mph - N/A   Mist